Location: Ku?niki
(51.4449°N, 17.8974°E)
Time: 06:39:33
(UTC+00:00)

Terra - Pass Details

Date: 18 September 2020
Orbit: 701 x 703 km, 98.2° (Epoch: 22 October)

Event Time Altitude Azimuth Distance (km) Brightness Sun altitude
Exits shadow 20:19:10 43° 12° (NNE) 984 2.7 -29.1°
Drops below altitude 10° 20:22:33 10° 351° (N) 2,183 5.0 -29.4°
Sets 20:24:50 0° 348° (NNW) 3,106 6.0 -29.7°
